Terminal Aerodrome Forecast
Issued by NWS

Home | Current Version | Previous Version | Text Only | Print | Product List | Glossary On
Versions: 1 2 3 4 5 6 7 8 9 10 11 12 13 14 15 16 17 18 19 20 21
000
FTUS43 KAPX 040225 AAA
TAFMBL
TAF AMD
KMBL 040225Z 0402/0424 VRB03KT P6SM SCT003 OVC028
      TEMPO 0404/0408 3SM BR
     FM040800 VRB02KT 1SM BR SCT002 OVC030
     FM041400 10004KT 5SM BR OVC018
     FM041700 30005KT P6SM BKN025
      AMD LTD TO CLD VIS AND WIND=

USA.gov is the U.S. government's official web portal to all federal, state and local government web resources and services.